DW0487 Weather Reports


Display with metric or nautical units.
time (UTC)temp
F
wind
direction
speed
MPH
gust
MPH
rain 1hr
in
rain 24hr
in
rain mn
in
humidity
%
barometer
mb
20260503224558 51 304 0.0 3.0 0.00 0.00 0.00 74 1013.4
20260503223057 51 157 0.0 2.0 0.00 0.00 0.00 73 1013.3
20260503221555 51 270 0.0 0.0 0.00 0.00 0.00 72 1013.2
20260503220053 52 311 0.0 4.0 0.00 0.00 0.00 72 1013.1
20260503214551 53 51 2.0 4.0 0.00 0.00 0.00 70 1013.1
20260503213057 54 199 0.0 0.0 0.00 0.00 0.00 67 1013.0
20260503211550 55 199 0.0 0.0 0.00 0.00 0.00 66 1012.7
20260503210101 56 199 1.0 2.0 0.00 0.00 0.00 63 1012.7
20260503204549 56 199 0.0 2.0 0.00 0.00 0.00 63 1012.5
20260503203053 57 233 0.0 0.0 0.00 0.00 0.00 61 1012.5
20260503201548 58 233 0.0 3.0 0.00 0.00 0.00 59 1012.4
20260503200050 59 213 0.0 2.0 0.00 0.00 0.00 57 1012.4
20260503194547 59 228 1.0 4.0 0.00 0.00 0.00 54 1012.4
20260503193052 60 271 0.0 0.0 0.00 0.00 0.00 53 1012.2
20260503191549 62 282 0.0 2.0 0.00 0.00 0.00 52 1012.0
20260503190047 63 36 2.0 4.0 0.00 0.00 0.00 51 1011.7
20260503184555 64 5 1.0 4.0 0.00 0.00 0.00 49 1011.5
20260503183056 65 25 3.0 5.0 0.00 0.00 0.00 45 1011.5
20260503181545 66 38 3.0 5.0 0.00 0.00 0.00 44 1011.4
20260503180045 67 26 3.0 8.0 0.00 0.00 0.00 44 1011.3
20260503174544 67 33 4.0 9.0 0.00 0.00 0.00 44 1011.1
20260503173055 68 46 4.0 9.0 0.00 0.00 0.00 44 1011.0
20260503171543 68 41 4.0 9.0 0.00 0.00 0.00 43 1010.9
20260503170144 69 57 4.0 9.0 0.00 0.00 0.00 43 1010.8
20260503160149 71 355 5.0 10.0 0.00 0.00 0.00 39 1010.5
20260503120124 78 140 4.0 9.0 0.00 0.00 0.00 18 1011.5
20260503081604 66 174 5.0 10.0 0.00 0.00 0.00 42 1014.6
20260503071527 56 81 4.0 7.0 0.00 0.00 0.00 62 1015.0
20260503054605 43 16 1.0 4.0 0.00 0.00 0.00 88 1015.8
20260503053058 42 50 1.0 2.0 0.00 0.00 0.00 88 1015.8
20260503051558 41 78 0.0 3.0 0.00 0.00 0.00 88 1016.0
20260503050053 40 5 0.0 0.0 0.00 0.00 0.00 88 1016.0
20260503044554 40 38 0.0 0.0 0.00 0.00 0.00 88 1016.0
20260503043050 40 65 0.0 0.0 0.00 0.00 0.00 87 1016.1
20260503041549 40 265 0.0 0.0 0.00 0.00 0.00 87 1016.1
20260503040049 40 149 0.0 0.0 0.00 0.00 0.00 87 1016.0
20260503034549 40 167 0.0 0.0 0.00 0.00 0.00 87 1016.1
20260503033059 40 158 1.0 5.0 0.00 0.00 0.00 87 1016.1
20260503031553 40 180 0.0 3.0 0.00 0.00 0.00 88 1016.1
20260503030040 40 140 1.0 3.0 0.00 0.00 0.00 87 1016.2
20260503024543 40 42 1.0 2.0 0.00 0.00 0.00 87 1016.1
20260503023038 40 65 0.0 3.0 0.00 0.00 0.00 86 1016.2
20260503021536 40 86 0.0 0.0 0.00 0.00 0.00 85 1016.2
20260503020034 40 80 1.0 3.0 0.00 0.00 0.00 85 1016.3
20260503014540 41 67 0.0 0.0 0.00 0.00 0.00 84 1016.3
20260503013033 41 111 0.0 1.0 0.00 0.00 0.00 84 1016.3
20260503011530 41 53 0.0 0.0 0.00 0.00 0.00 83 1016.4
20260503010027 41 327 0.0 0.0 0.00 0.00 0.00 83 1016.5
20260503004528 42 71 0.0 3.0 0.00 0.00 0.00 83 1016.5
20260503003024 42 127 0.0 1.0 0.00 0.00 0.00 82 1016.5
20260503001522 43 325 0.0 0.0 0.00 0.00 0.00 80 1016.7
20260503000019 43 350 0.0 0.0 0.00 0.00 0.00 80 1016.9
20260502234517 44 350 0.0 0.0 0.00 0.00 0.00 79 1016.8
20260502233016 44 308 0.0 0.0 0.00 0.00 0.00 79 1016.9
20260502231513 45 257 0.0 0.0 0.00 0.00 0.00 79 1017.0
20260502230012 46 258 0.0 0.0 0.00 0.00 0.00 77 1017.1